TimeCDT,TemperatureF,Dew PointF,Humidity,Sea Level PressureIn,VisibilityMPH,Wind Direction,Wind SpeedMPH,Gust SpeedMPH,PrecipitationIn,Events,Conditions,WindDirDegrees,DateUTC
12:18 AM,64.4,37.4,37,30.08,10.0,North,13.8,21.9,0.00,Rain,Light Rain,360,2013-03-20 05:18:00
12:53 AM,62.1,41.0,46,30.10,10.0,North,16.1,24.2,0.00,,Mostly Cloudy,360,2013-03-20 05:53:00
1:53 AM,54.0,46.9,77,30.08,10.0,NE,9.2,-,0.01,Rain,Light Rain,50,2013-03-20 06:53:00
2:53 AM,52.0,48.0,86,30.14,4.0,East,9.2,-,0.13,Rain,Rain,80,2013-03-20 07:53:00
3:33 AM,51.8,48.2,88,30.15,6.0,ESE,8.1,-,0.08,Rain,Rain,110,2013-03-20 08:33:00
3:53 AM,52.0,48.0,86,30.11,5.0,East,9.2,-,0.15,Rain,Rain,90,2013-03-20 08:53:00
4:53 AM,52.0,48.0,86,30.06,7.0,East,10.4,-,0.14,Rain,Heavy Rain,90,2013-03-20 09:53:00
5:13 AM,51.8,48.2,88,30.10,9.0,Variable,3.5,-,0.01,Rain,Light Rain,0,2013-03-20 10:13:00
5:30 AM,51.8,46.4,82,30.12,10.0,North,4.6,-,0.01,,Mostly Cloudy,10,2013-03-20 10:30:00
5:53 AM,52.0,48.0,86,30.13,10.0,NNE,4.6,-,0.01,,Mostly Cloudy,20,2013-03-20 10:53:00
6:24 AM,51.8,46.4,82,30.16,10.0,NNE,5.8,-,N/A,,Overcast,30,2013-03-20 11:24:00
6:53 AM,51.1,46.9,86,30.18,10.0,NNE,5.8,-,N/A,,Overcast,30,2013-03-20 11:53:00
7:22 AM,50.0,46.4,87,30.18,10.0,NNE,4.6,-,N/A,,Scattered Clouds,30,2013-03-20 12:22:00
7:53 AM,50.0,46.0,86,30.19,10.0,NNE,4.6,-,N/A,,Clear,20,2013-03-20 12:53:00
8:53 AM,53.1,44.1,71,30.22,10.0,NE,5.8,-,N/A,,Clear,40,2013-03-20 13:53:00
9:53 AM,55.9,42.1,60,30.23,10.0,NE,8.1,-,N/A,,Clear,40,2013-03-20 14:53:00
10:53 AM,61.0,43.0,52,30.24,10.0,North,5.8,-,N/A,,Clear,10,2013-03-20 15:53:00
11:53 AM,64.9,42.1,43,30.24,10.0,NNE,9.2,-,N/A,,Clear,20,2013-03-20 16:53:00
12:53 PM,69.1,39.0,33,30.21,10.0,NNE,6.9,-,N/A,,Clear,20,2013-03-20 17:53:00
1:53 PM,71.1,28.9,21,30.18,10.0,NNE,8.1,20.7,N/A,,Clear,30,2013-03-20 18:53:00
2:53 PM,72.0,28.9,20,30.15,10.0,NE,9.2,19.6,N/A,,Clear,40,2013-03-20 19:53:00
3:53 PM,73.9,28.9,19,30.12,10.0,North,6.9,-,N/A,,Clear,350,2013-03-20 20:53:00
4:53 PM,73.0,27.0,18,30.10,10.0,North,12.7,17.3,N/A,,Clear,360,2013-03-20 21:53:00
5:53 PM,72.0,26.1,18,30.09,10.0,North,9.2,-,N/A,,Clear,10,2013-03-20 22:53:00
6:53 PM,68.0,26.1,21,30.09,10.0,NNE,4.6,-,N/A,,Clear,30,2013-03-20 23:53:00
8:53 PM,57.0,35.1,44,30.07,10.0,Calm,Calm,-,N/A,,Clear,0,2013-03-21 01:53:00
9:53 PM,57.0,33.1,40,30.07,10.0,NE,4.6,-,N/A,,Clear,40,2013-03-21 02:53:00
10:53 PM,53.1,37.9,57,30.08,10.0,Calm,Calm,-,N/A,,Clear,0,2013-03-21 03:53:00
11:53 PM,51.1,39.9,66,30.06,10.0,Calm,Calm,-,N/A,,Clear,0,2013-03-21 04:53:00